Date String (YYYY-MM-DD hh:mm:ss) UTC,Instrument flags,Ambient pressure (hPa),Sample flow (lpm),Bypass flow (lpm),Sample temperature (°C),Ambient temperature (°C),ASC tube jacket temperature (°C),LED temperature (°C),Box temperature (°C),Sample RH (%),Span deviation,Mass concentration (μg/m³),Mass concentration (μg/m³),Mass concentration (μg/m³)
DateTimeUTC,F1_M11,P_M11,Q1_M11,Q2_M11,T1_M11,T2_M11,T3_M11,T4_M11,T5_M11,U1_M11,ZSPAN_M11,X0_M11,X2_M11,X1_M11
2022-02-05 04:00:00,,0830.4,4.99,0.00,22.1,21.5,00.0,31.1,23.8,08.7,0000.0,0011.32,0004.75,0004.16
2022-02-05 04:01:00,,0830.6,5.01,0.00,22.1,21.5,00.0,31.1,23.8,08.8,0000.0,0011.49,0004.80,0004.20
2022-02-05 04:02:00,,0830.3,5.00,0.00,22.0,21.4,00.0,31.1,23.7,08.8,0000.0,0011.51,0004.84,0004.23
2022-02-05 04:03:00,,0830.5,4.99,0.00,22.0,21.4,00.0,31.0,23.7,08.7,0000.0,0011.61,0004.91,0004.26
2022-02-05 04:04:00,,0830.5,5.00,0.00,22.0,21.3,00.0,31.0,23.6,08.6,0000.0,0011.66,0004.94,0004.29
2022-02-05 04:05:00,,0830.6,5.00,0.00,22.0,21.2,00.0,31.0,23.6,08.6,0000.0,0011.67,0004.98,0004.31
2022-02-05 04:06:00,,0830.5,4.99,0.00,21.9,21.2,00.0,31.0,23.6,08.6,0000.0,0011.81,0004.96,0004.29
2022-02-05 04:07:00,,0830.5,5.01,0.00,21.9,21.1,00.0,31.0,23.5,08.6,0000.0,0011.53,0004.97,0004.29
2022-02-05 04:08:00,,0830.5,4.99,0.00,21.8,21.0,00.0,31.0,23.4,08.6,0000.0,0010.82,0004.94,0004.27
2022-02-05 04:09:00,,0830.5,5.00,0.00,21.9,21.6,00.0,31.0,23.6,08.5,0000.0,0010.76,0004.87,0004.25
2022-02-05 04:10:00,,0830.4,5.00,0.00,22.0,22.5,00.0,31.0,23.9,08.4,0000.0,0010.25,0004.82,0004.23
2022-02-05 04:11:00,,0830.5,5.01,0.00,22.2,22.9,00.0,31.1,24.1,08.4,0000.0,0010.14,0004.82,0004.22
2022-02-05 04:12:00,,0830.4,4.99,0.00,22.2,22.6,00.0,31.1,24.1,08.4,0000.0,0010.30,0004.82,0004.22
2022-02-05 04:13:00,,0830.4,5.01,0.00,22.2,22.4,00.0,31.1,24.1,08.4,0000.0,0010.14,0004.73,0004.19
2022-02-05 04:14:00,,0830.4,5.00,0.00,22.2,22.2,00.0,31.1,23.9,08.4,0000.0,0010.00,0004.64,0004.13
2022-02-05 04:15:00,,0830.4,4.99,0.00,22.1,21.9,00.0,31.1,23.8,08.4,0000.0,0009.96,0004.59,0004.09
2022-02-05 04:16:00,,0830.4,5.02,0.00,22.1,21.8,00.0,31.1,23.8,08.4,0000.0,0009.91,0004.53,0004.04
2022-02-05 04:17:00,,0830.3,5.00,0.00,22.1,21.7,00.0,31.1,23.7,08.4,0000.0,0009.71,0004.50,0004.02
2022-02-05 04:18:00,,0830.2,5.00,0.00,22.1,21.6,00.0,31.1,23.8,08.4,0000.0,0009.34,0004.44,0003.99
2022-02-05 04:19:00,,0830.3,5.00,0.00,22.1,21.5,00.0,31.1,23.7,08.5,0000.0,0009.61,0004.44,0003.96
2022-02-05 04:20:00,,0830.4,4.98,0.00,22.0,21.5,00.0,31.1,23.7,08.6,0000.0,0009.42,0004.46,0003.93
2022-02-05 04:21:00,,0830.4,5.01,0.00,22.0,21.4,00.0,31.1,23.7,08.6,0000.0,0009.39,0004.49,0003.91
2022-02-05 04:22:00,,0830.4,4.99,0.00,22.0,21.4,00.0,31.1,23.7,08.5,0000.0,0009.17,0004.45,0003.87
2022-02-05 04:23:00,,0830.4,5.01,0.00,22.0,21.4,00.0,31.0,23.7,08.5,0000.0,0009.42,0004.40,0003.82
2022-02-05 04:24:00,,0830.3,4.99,0.00,22.0,21.3,00.0,31.0,23.7,08.5,0000.0,0009.78,0004.36,0003.78
2022-02-05 04:25:00,,0830.4,4.99,0.00,22.0,21.3,00.0,31.0,23.7,08.5,0000.0,0009.85,0004.37,0003.76
2022-02-05 04:26:00,,0830.4,5.01,0.00,21.9,21.2,00.0,31.0,23.6,08.5,0000.0,0009.85,0004.37,0003.77
2022-02-05 04:27:00,,0830.4,4.99,0.00,21.9,21.1,00.0,31.0,23.5,08.6,0000.0,0009.86,0004.35,0003.75
2022-02-05 04:28:00,,0830.5,5.02,0.00,21.9,21.5,00.0,31.0,23.6,08.6,0000.0,0010.13,0004.33,0003.73
2022-02-05 04:29:00,,0830.4,4.98,0.00,22.0,22.3,00.0,31.0,23.9,08.6,0000.0,0010.70,0004.31,0003.71
2022-02-05 04:30:00,,0830.4,5.01,0.00,22.2,22.9,00.0,31.1,24.1,08.4,0000.0,0010.70,0004.30,0003.69
2022-02-05 04:31:00,,0830.4,5.00,0.00,22.3,22.7,00.0,31.1,24.1,08.4,0000.0,0010.40,0004.26,0003.68
2022-02-05 04:32:00,,0830.4,4.99,0.00,22.3,22.5,00.0,31.1,24.1,08.3,0000.0,0010.37,0004.22,0003.65
2022-02-05 04:33:00,,0830.3,4.99,0.00,22.3,22.3,00.0,31.1,24.1,08.3,0000.0,0010.29,0004.15,0003.63
2022-02-05 04:34:00,,0830.2,5.01,0.00,22.2,22.1,00.0,31.1,23.9,08.3,0000.0,0009.73,0004.11,0003.61
2022-02-05 04:35:00,,0830.3,5.01,0.00,22.2,21.9,00.0,31.1,23.8,08.3,0000.0,0009.24,0004.11,0003.59
2022-02-05 04:36:00,,0830.2,4.99,0.00,22.1,21.7,00.0,31.1,23.8,08.5,0000.0,0009.22,0004.11,0003.57
2022-02-05 04:37:00,,0830.2,5.00,0.00,22.1,21.6,00.0,31.1,23.7,08.5,0000.0,0009.32,0004.11,0003.55
2022-02-05 04:38:00,,0830.1,5.00,0.00,22.1,21.5,00.0,31.1,23.7,08.6,0000.0,0009.36,0004.10,0003.54
2022-02-05 04:39:00,,0830.2,5.01,0.00,22.0,21.4,00.0,31.1,23.7,08.6,0000.0,0009.37,0004.09,0003.53
2022-02-05 04:40:00,,0830.2,5.00,0.00,22.0,21.3,00.0,31.1,23.6,08.7,0000.0,0008.63,0004.08,0003.52
2022-02-05 04:41:00,,0830.2,4.99,0.00,22.0,21.2,00.0,31.1,23.6,08.7,0000.0,0008.51,0004.14,0003.51
2022-02-05 04:42:00,,0830.1,5.01,0.00,21.9,21.1,00.0,31.0,23.4,08.7,0000.0,0008.99,0004.12,0003.50
2022-02-05 04:43:00,,0830.1,4.98,0.00,21.8,21.1,00.0,31.0,23.4,08.7,0000.0,0009.18,0004.11,0003.50
2022-02-05 04:44:00,,0830.1,5.02,0.00,21.8,21.1,00.0,31.0,23.4,08.7,0000.0,0009.25,0004.14,0003.49
2022-02-05 04:45:00,,0830.1,4.98,0.00,21.8,21.2,00.0,31.0,23.4,08.6,0000.0,0009.27,0004.15,0003.48
2022-02-05 04:46:00,,0830.1,5.00,0.00,21.9,21.9,00.0,31.0,23.7,08.5,0000.0,0009.69,0004.17,0003.49
2022-02-05 04:47:00,,0830.1,5.01,0.00,22.0,22.7,00.0,31.0,24.0,08.6,0000.0,0010.95,0004.14,0003.47
2022-02-05 04:48:00,,0830.0,4.99,0.00,22.2,22.9,00.0,31.1,24.1,08.4,0000.0,0010.81,0004.09,0003.45
2022-02-05 04:49:00,,0830.1,5.00,0.00,22.2,22.6,00.0,31.1,24.1,08.4,0000.0,0010.66,0004.07,0003.43
2022-02-05 04:50:00,,0830.0,4.99,0.00,22.2,22.3,00.0,31.1,23.9,08.5,0000.0,0010.47,0004.08,0003.42
2022-02-05 04:51:00,,0830.1,4.99,0.00,22.1,22.0,00.0,31.1,23.8,08.3,0000.0,0010.54,0004.11,0003.43
2022-02-05 04:52:00,,0830.0,5.02,0.00,22.1,21.8,00.0,31.1,23.7,08.3,0000.0,0010.53,0004.16,0003.52
2022-02-05 04:53:00,,0830.0,5.00,0.00,22.0,21.6,00.0,31.1,23.7,08.3,0000.0,0010.14,0004.21,0003.57
2022-02-05 04:54:00,,0830.1,4.98,0.00,22.0,21.4,00.0,31.1,23.6,08.3,0000.0,0009.87,0004.20,0003.58
2022-02-05 04:55:00,,0830.0,5.01,0.00,21.9,21.3,00.0,31.0,23.5,08.3,0000.0,0009.74,0004.20,0003.62
2022-02-05 04:56:00,,0830.0,5.01,0.00,21.9,21.2,00.0,31.0,23.4,08.4,0000.0,0010.01,0004.25,0003.69
2022-02-05 04:57:00,,0830.0,4.98,0.00,21.8,21.0,00.0,31.0,23.4,08.3,0000.0,0009.98,0004.27,0003.76
2022-02-05 04:58:00,,0830.0,5.01,0.00,21.8,20.9,00.0,31.0,23.3,08.3,0000.0,0008.72,0004.33,0003.82
2022-02-05 04:59:00,,0830.0,5.00,0.00,21.7,20.9,00.0,30.9,23.3,08.3,0000.0,0008.93,0004.37,0003.86
